Trinity Center, CA

7:46 AM PDT on September 30, 2016 (GMT -0700)
Trinity Center

Weather History for KO86 - May, 2013

Change the Weather History Date:

Tuesday, May 7, 2013

  Actual Average (KMHS) Record (KMHS)
Temperature  
Mean Temperature 56 °F 52 °F  
Max Temperature 62 °F 67 °F 87 °F (1987)
Min Temperature 51 °F 38 °F 20 °F (1929)
Degree Days  
Heating Degree Days 8 13  
Month to date heating degree days 95  
Since 1 July heating degree days 5310  
Cooling Degree Days 0 0  
Month to date cooling degree days 0  
Year to date cooling degree days 0  
Growing Degree Days 6 (Base 50)    
Moisture  
Dew Point 51 °F    
Average Humidity 84    
Maximum Humidity 100    
Minimum Humidity 63    
Precipitation  
Precipitation 0.06 in 0.07 in 1.33 in (1952)
Month to date precipitation 0.50  
Year to date precipitation 23.68  
Sea Level Pressure  
Sea Level Pressure 30.03 in    
Wind  
Wind Speed 2 mph (SSE)    
Max Wind Speed 9 mph    
Max Gust Speed -    
Visibility 9 miles    
Events      
T = Trace of Precipitation, MM = Missing Value Source: NWS Daily Summary

Daily Weather History Graph

Daily Weather History Graph

Search for Another Location

Airport or City:

Trip Planner

Search our weather history database for the weather conditions in past years. The results will help you decide how hot, cold, wet, or windy it might be!

Date:

Astronomy

May. 07, 2013 Rise Set
Actual Time 6:01 AM PDT 8:14 PM PDT
Civil Twilight 5:30 AM PDT 8:44 PM PDT
Nautical Twilight 4:53 AM PDT 9:22 PM PDT
Astronomical Twilight 4:12 AM PDT 10:03 PM PDT
Moon 4:39 AM PDT (5/7) 6:18 PM PDT (5/7)
Length of Visible Light 15h 14m
Length of Day
14h 13m
Waning Crescent, 5% of the Moon is Illuminated
May 7
Waning Crescent
May 9
New
May 17
First Quarter
May 24
Full
May 31
Last Quarter

Hourly Weather History & Observations

Time (PDT) Temp. Dew Point Humidity Pressure Visibility Wind Dir Wind Speed Gust Speed Precip Events Conditions
12:10 AM 53.6 °F 51.8 °F 94% 30.00 in 10.0 mi Calm Calm - N/A   Overcast
12:30 AM 53.6 °F 51.8 °F 94% 30.01 in 10.0 mi Calm Calm - N/A   Overcast
12:50 AM 53.6 °F 51.8 °F 94% 30.00 in 10.0 mi Calm Calm - N/A   Overcast
1:10 AM 53.6 °F 51.8 °F 94% 30.00 in 5.0 mi Calm Calm - 0.01 in   Overcast
1:30 AM 53.6 °F 50.0 °F 88% 29.99 in 5.0 mi Calm Calm - 0.04 in   Overcast
1:50 AM 53.6 °F 51.8 °F 94% 29.99 in 8.0 mi SE 4.6 mph - 0.04 in   Overcast
2:10 AM 53.6 °F 51.8 °F 94% 29.99 in 10.0 mi SE 5.8 mph - N/A   Overcast
2:30 AM 53.6 °F 50.0 °F 88% 29.99 in 10.0 mi Calm Calm - N/A   Overcast
2:50 AM 53.6 °F 50.0 °F 88% 29.99 in 10.0 mi West 3.5 mph - N/A   Overcast
3:10 AM 53.6 °F 50.0 °F 88% 29.99 in 10.0 mi Calm Calm - N/A   Overcast
3:30 AM 53.6 °F 50.0 °F 88% 29.99 in 10.0 mi Calm Calm - N/A   Overcast
3:50 AM 53.6 °F 51.8 °F 94% 30.00 in 10.0 mi Calm Calm - N/A   Overcast
4:10 AM 53.6 °F 51.8 °F 94% 30.00 in 10.0 mi SSE 3.5 mph - N/A   Mostly Cloudy
4:30 AM 53.6 °F 51.8 °F 94% 30.01 in 10.0 mi Calm Calm - N/A   Overcast
4:50 AM 53.6 °F 51.8 °F 94% 30.00 in 10.0 mi Calm Calm - N/A   Overcast
5:10 AM 53.6 °F 51.8 °F 94% 30.01 in 10.0 mi Calm Calm - N/A   Overcast
5:30 AM 53.6 °F 50.0 °F 88% 30.01 in 10.0 mi Calm Calm - N/A   Overcast
5:50 AM 53.6 °F 50.0 °F 88% 30.01 in 10.0 mi Calm Calm - N/A   Overcast
6:10 AM 53.6 °F 50.0 °F 88% 30.01 in 10.0 mi Calm Calm - N/A   Overcast
6:30 AM 53.6 °F 51.8 °F 94% 30.02 in 7.0 mi Calm Calm - N/A   Overcast
6:50 AM 53.6 °F 50.0 °F 88% 30.02 in 10.0 mi Calm Calm - N/A   Overcast
7:10 AM 53.6 °F 50.0 °F 88% 30.02 in 10.0 mi Calm Calm - N/A   Overcast
7:30 AM 51.8 °F 50.0 °F 94% 30.03 in 2.0 mi ENE 3.5 mph - N/A   Overcast
7:50 AM 51.8 °F 50.0 °F 94% 30.03 in 2.0 mi Calm Calm - N/A   Overcast
8:10 AM 53.6 °F 50.0 °F 88% 30.04 in 7.0 mi Calm Calm - N/A   Overcast
8:30 AM 53.6 °F 50.0 °F 88% 30.04 in 10.0 mi SSE 4.6 mph - N/A   Overcast
8:50 AM 53.6 °F 50.0 °F 88% 30.04 in 10.0 mi SSE 4.6 mph - N/A   Overcast
9:10 AM 53.6 °F 50.0 °F 88% 30.05 in 10.0 mi Calm Calm - N/A   Overcast
9:30 AM 55.4 °F 50.0 °F 82% 30.05 in 10.0 mi Calm Calm - N/A   Overcast
9:50 AM 53.6 °F 50.0 °F 88% 30.05 in 10.0 mi WSW 3.5 mph - N/A   Overcast
10:10 AM 55.4 °F 50.0 °F 82% 30.05 in 10.0 mi WSW 3.5 mph - N/A   Overcast
10:30 AM 55.4 °F 50.0 °F 82% 30.05 in 10.0 mi Calm Calm - N/A   Overcast
10:50 AM 55.4 °F 50.0 °F 82% 30.06 in 10.0 mi SE 4.6 mph - N/A   Overcast
11:10 AM 55.4 °F 50.0 °F 82% 30.06 in 10.0 mi SSE 4.6 mph - N/A   Overcast
11:30 AM 55.4 °F 50.0 °F 82% 30.05 in 10.0 mi Calm Calm - N/A   Overcast
11:50 AM 57.2 °F 50.0 °F 77% 30.05 in 10.0 mi Calm Calm - N/A   Overcast
12:10 PM 57.2 °F 51.8 °F 82% 30.05 in 10.0 mi SSE 8.1 mph - N/A   Overcast
12:30 PM 57.2 °F 51.8 °F 82% 30.05 in 10.0 mi SE 3.5 mph - N/A   Overcast
12:50 PM 59.0 °F 50.0 °F 72% 30.04 in 10.0 mi SSE 4.6 mph - N/A   Overcast
1:10 PM 59.0 °F 50.0 °F 72% 30.04 in 10.0 mi SSE 4.6 mph - N/A   Overcast
1:30 PM 59.0 °F 50.0 °F 72% 30.04 in 10.0 mi South 4.6 mph - N/A   Overcast
1:50 PM 59.0 °F 50.0 °F 72% 30.04 in 10.0 mi SE 4.6 mph - N/A   Overcast
2:10 PM 60.8 °F 50.0 °F 68% 30.03 in 10.0 mi SSE 4.6 mph - N/A   Overcast
2:30 PM 62.6 °F 50.0 °F 63% 30.03 in 10.0 mi SSE 5.8 mph - N/A   Overcast
3:10 PM 62.6 °F 50.0 °F 63% 30.03 in 10.0 mi SE 5.8 mph - N/A   Overcast
3:30 PM 62.6 °F 50.0 °F 63% 30.02 in 10.0 mi SSE 3.5 mph - N/A   Overcast
3:50 PM 62.6 °F 50.0 °F 63% 30.01 in 10.0 mi East 3.5 mph - N/A   Overcast
4:10 PM 62.6 °F 50.0 °F 63% 30.01 in 10.0 mi SE 3.5 mph - N/A   Overcast
4:30 PM 62.6 °F 50.0 °F 63% 30.00 in 10.0 mi SE 5.8 mph - N/A   Overcast
4:50 PM 62.6 °F 51.8 °F 68% 30.00 in 10.0 mi South 5.8 mph - N/A   Overcast
5:10 PM 62.6 °F 50.0 °F 63% 30.01 in 10.0 mi SSE 9.2 mph - N/A   Overcast
5:30 PM 62.6 °F 50.0 °F 63% 30.02 in 10.0 mi South 9.2 mph - N/A   Overcast
5:50 PM 62.6 °F 50.0 °F 63% 30.03 in 10.0 mi South 8.1 mph - N/A   Overcast
6:10 PM 62.6 °F 50.0 °F 63% 30.03 in 10.0 mi South 4.6 mph - N/A   Overcast
6:30 PM 60.8 °F 50.0 °F 68% 30.03 in 10.0 mi South 6.9 mph - N/A   Overcast
6:50 PM 60.8 °F 50.0 °F 68% 30.04 in 10.0 mi South 3.5 mph - N/A   Overcast
7:10 PM 59.0 °F 51.8 °F 77% 30.04 in 10.0 mi Calm Calm - N/A   Overcast
7:30 PM 57.2 °F 53.6 °F 88% 30.05 in 10.0 mi North 5.8 mph - N/A   Overcast
7:50 PM 57.2 °F 53.6 °F 88% 30.07 in 10.0 mi North 3.5 mph - N/A   Overcast
8:10 PM 57.2 °F 53.6 °F 88% 30.07 in 4.0 mi Calm Calm - N/A   Overcast
8:30 PM 55.4 °F 53.6 °F 94% 30.06 in 7.0 mi Calm Calm - 0.02 in   Overcast
8:50 PM 55.4 °F 53.6 °F 94% 30.06 in 10.0 mi Calm Calm - 0.02 in   Mostly Cloudy
9:10 PM 55.4 °F 53.6 °F 94% 30.07 in 10.0 mi Calm Calm - N/A   Overcast
9:30 PM 55.4 °F 53.6 °F 94% 30.07 in 10.0 mi Calm Calm - N/A   Overcast
9:50 PM 55.4 °F 53.6 °F 94% 30.08 in 10.0 mi Calm Calm - N/A   Overcast
10:10 PM 55.4 °F 53.6 °F 94% 30.07 in 10.0 mi Calm Calm - N/A   Overcast
10:30 PM 55.4 °F 53.6 °F 94% 30.07 in 10.0 mi Calm Calm - N/A   Overcast
10:50 PM 55.4 °F 53.6 °F 94% 30.08 in 10.0 mi Calm Calm - N/A   Overcast
11:10 PM 53.6 °F 53.6 °F 100% 30.08 in 10.0 mi Calm Calm - N/A   Overcast
11:30 PM 53.6 °F 53.6 °F 100% 30.08 in 10.0 mi Calm Calm - N/A   Overcast
11:50 PM 53.6 °F 53.6 °F 100% 30.08 in 10.0 mi Calm Calm - N/A   Overcast